Total_Precipitation_Accumulation
0.69 0.69 0.56 0.48 0.45 0.45 0.42 0.40 0.45 0.54 0.59 0.52 0.53 0.60 0.61 0.64 0.67 0.74 0.85 0.95 0.89 0.83 0.74 0.72 0.81 0.88 1.06 1.12 1.10 1.00 0.95 0.88 0.76 0.72 0.52 0.28 0.20 0.19 0.19 0.12 0.08 0.06 0.04
0.71 0.68 0.60 0.56 0.56 0.59 0.57 0.46 0.46 0.51 0.49 0.49 0.54 0.55 0.54 0.57 0.60 0.67 0.77 0.82 0.82 0.74 0.65 0.61 0.65 0.73 0.88 1.03 1.14 1.05 0.98 0.91 0.86 0.83 0.66 0.46 0.34 0.28 0.22 0.16 0.11 0.08 0.07
0.75 0.73 0.66 0.56 0.55 0.56 0.54 0.47 0.46 0.47 0.44 0.50 0.51 0.53 0.53 0.51 0.56 0.60 0.63 0.63 0.56 0.52 0.51 0.50 0.55 0.59 0.67 0.80 0.93 1.02 0.98 0.91 0.94 0.95 0.81 0.62 0.46 0.35 0.29 0.24 0.17 0.14 0.12
0.85 0.77 0.74 0.70 0.68 0.58 0.47 0.41 0.40 0.40 0.37 0.40 0.45 0.45 0.49 0.48 0.49 0.50 0.50 0.55 0.48 0.38 0.33 0.33 0.37 0.40 0.46 0.58 0.71 0.84 0.95 0.98 1.00 1.01 0.94 0.73 0.54 0.40 0.30 0.28 0.29 0.25 0.22
0.92 0.85 0.78 0.74 0.65 0.54 0.48 0.37 0.32 0.29 0.28 0.31 0.41 0.51 0.54 0.53 0.54 0.53 0.45 0.47 0.46 0.41 0.35 0.30 0.25 0.26 0.31 0.38 0.49 0.68 0.81 0.93 1.00 1.05 1.01 0.87 0.70 0.57 0.43 0.36 0.34 0.38 0.38
0.77 0.77 0.76 0.73 0.57 0.49 0.42 0.33 0.27 0.25 0.24 0.27 0.32 0.42 0.54 0.52 0.60 0.59 0.50 0.45 0.46 0.39 0.35 0.36 0.35 0.31 0.23 0.19 0.21 0.32 0.47 0.65 0.81 0.91 0.96 0.87 0.74 0.64 0.58 0.50 0.41 0.36 0.37
0.60 0.63 0.64 0.59 0.46 0.41 0.32 0.27 0.27 0.25 0.26 0.29 0.32 0.41 0.53 0.65 0.62 0.47 0.48 0.45 0.44 0.40 0.33 0.33 0.35 0.34 0.37 0.33 0.27 0.23 0.23 0.31 0.47 0.63 0.71 0.73 0.78 0.67 0.54 0.44 0.38 0.35 0.34
0.45 0.48 0.47 0.46 0.41 0.34 0.26 0.25 0.26 0.26 0.28 0.29 0.33 0.36 0.41 0.54 0.51 0.41 0.52 0.51 0.52 0.50 0.42 0.38 0.40 0.38 0.38 0.50 0.52 0.44 0.36 0.37 0.47 0.38 0.41 0.61 0.66 0.61 0.52 0.45 0.43 0.38 0.32
0.30 0.36 0.39 0.39 0.36 0.30 0.25 0.31 0.37 0.34 0.32 0.31 0.29 0.31 0.34 0.39 0.42 0.36 0.40 0.50 0.58 0.55 0.46 0.44 0.46 0.47 0.59 0.59 0.51 0.48 0.47 0.46 0.64 0.66 0.61 0.56 0.50 0.43 0.41 0.44 0.42 0.37 0.33
0.19 0.24 0.28 0.30 0.34 0.37 0.45 0.52 0.53 0.49 0.40 0.36 0.33 0.30 0.33 0.34 0.42 0.28 0.32 0.43 0.53 0.60 0.56 0.50 0.66 0.61 0.61 0.47 0.34 0.44 0.51 0.50 0.50 0.51 0.51 0.47 0.39 0.33 0.32 0.33 0.40 0.40 0.35
0.04 0.10 0.18 0.29 0.34 0.44 0.55 0.58 0.56 0.50 0.41 0.36 0.34 0.31 0.32 0.38 0.51 0.41 0.40 0.46 0.52 0.59 0.63 0.63 0.61 0.65 0.47 0.37 0.33 0.39 0.52 0.55 0.54 0.57 0.56 0.49 0.39 0.33 0.31 0.30 0.34 0.35 0.35
0.03 0.07 0.13 0.20 0.29 0.42 0.51 0.50 0.49 0.47 0.44 0.40 0.40 0.37 0.38 0.47 0.53 0.51 0.48 0.50 0.51 0.58 0.60 0.52 0.48 0.50 0.35 0.29 0.26 0.33 0.40 0.40 0.42 0.48 0.52 0.49 0.41 0.35 0.32 0.28 0.27 0.27 0.26
0.01 0.02 0.06 0.11 0.22 0.36 0.39 0.39 0.42 0.44 0.43 0.42 0.40 0.38 0.36 0.41 0.49 0.56 0.48 0.40 0.37 0.42 0.44 0.41 0.36 0.31 0.26 0.22 0.22 0.27 0.29 0.35 0.42 0.47 0.45 0.43 0.42 0.40 0.36 0.31 0.25 0.20 0.19
0.00 0.00 0.01 0.02 0.05 0.10 0.15 0.20 0.26 0.31 0.32 0.32 0.34 0.38 0.40 0.41 0.39 0.41 0.42 0.38 0.32 0.31 0.28 0.20 0.19 0.20 0.23 0.24 0.25 0.25 0.26 0.38 0.49 0.51 0.50 0.46 0.46 0.44 0.41 0.37 0.34 0.30 0.29
0.00 0.00 0.01 0.02 0.03 0.04 0.06 0.09 0.12 0.15 0.19 0.24 0.30 0.33 0.34 0.38 0.37 0.37 0.38 0.38 0.41 0.44 0.42 0.30 0.23 0.21 0.22 0.24 0.26 0.30 0.39 0.46 0.53 0.49 0.48 0.44 0.42 0.44 0.43 0.40 0.38 0.37 0.35
0.00 0.00 0.00 0.01 0.01 0.01 0.02 0.03 0.04 0.06 0.09 0.12 0.15 0.18 0.18 0.24 0.31 0.32 0.33 0.35 0.37 0.42 0.43 0.42 0.41 0.41 0.39 0.35 0.33 0.30 0.33 0.39 0.43 0.48 0.48 0.44 0.38 0.38 0.37 0.35 0.35 0.34 0.33
0.00 0.00 0.00 0.01 0.01 0.02 0.03 0.05 0.04 0.03 0.02 0.03 0.05 0.09 0.11 0.11 0.14 0.20 0.26 0.30 0.32 0.35 0.37 0.39 0.40 0.41 0.39 0.34 0.29 0.26 0.24 0.26 0.31 0.39 0.46 0.48 0.47 0.44 0.40 0.35 0.29 0.27 0.28
0.00 0.00 0.01 0.05 0.07 0.04 0.04 0.08 0.11 0.12 0.09 0.04 0.02 0.04 0.05 0.05 0.04 0.06 0.08 0.14 0.16 0.19 0.24 0.27 0.28 0.28 0.26 0.24 0.20 0.18 0.18 0.18 0.19 0.22 0.28 0.37 0.47 0.55 0.54 0.48 0.44 0.39 0.34
0.00 0.01 0.02 0.06 0.07 0.08 0.11 0.13 0.12 0.12 0.11 0.07 0.04 0.02 0.02 0.02 0.02 0.02 0.03 0.06 0.06 0.07 0.09 0.11 0.11 0.12 0.14 0.14 0.11 0.10 0.12 0.14 0.15 0.16 0.18 0.20 0.26 0.36 0.45 0.50 0.53 0.56 0.53
0.00 0.00 0.01 0.03 0.05 0.06 0.08 0.09 0.08 0.07 0.07 0.05 0.04 0.03 0.03 0.03 0.03 0.02 0.02 0.03 0.03 0.04 0.04 0.04 0.05 0.05 0.07 0.07 0.06 0.05 0.05 0.07 0.09 0.10 0.11 0.13 0.16 0.19 0.25 0.33 0.38 0.41 0.43
0.00 0.00 0.00 0.01 0.03 0.03 0.03 0.03 0.04 0.04 0.03 0.02 0.02 0.01 0.02 0.05 0.05 0.04 0.03 0.03 0.03 0.03 0.03 0.03 0.03 0.04 0.05 0.06 0.10 0.12 0.09 0.06 0.07 0.08 0.09 0.10 0.11 0.12 0.15 0.20 0.24 0.27 0.31
0.00 0.00 0.01 0.02 0.04 0.03 0.02 0.02 0.03 0.04 0.03 0.02 0.02 0.01 0.01 0.04 0.05 0.05 0.04 0.03 0.04 0.03 0.03 0.03 0.03 0.04 0.05 0.06 0.10 0.15 0.17 0.14 0.11 0.09 0.10 0.11 0.12 0.12 0.13 0.15 0.17 0.19 0.20
0.00 0.00 0.01 0.02 0.03 0.01 0.01 0.03 0.03 0.03 0.03 0.02 0.02 0.02 0.03 0.04 0.04 0.03 0.03 0.04 0.05 0.06 0.06 0.05 0.04 0.05 0.06 0.07 0.08 0.09 0.10 0.13 0.15 0.15 0.13 0.13 0.14 0.15 0.17 0.17 0.17 0.19 0.20
0.00 0.00 0.01 0.02 0.02 0.02 0.03 0.03 0.03 0.02 0.02 0.02 0.02 0.03 0.04 0.05 0.04 0.03 0.03 0.04 0.05 0.05 0.06 0.05 0.04 0.04 0.05 0.06 0.07 0.08 0.10 0.10 0.09 0.08 0.09 0.10 0.11 0.12 0.14 0.16 0.18 0.19 0.21
0.00 0.00 0.01 0.01 0.01 0.02 0.02 0.03 0.04 0.02 0.02 0.02 0.02 0.02 0.03 0.04 0.05 0.04 0.03 0.03 0.03 0.03 0.03 0.03 0.03 0.05 0.08 0.09 0.09 0.12 0.18 0.17 0.12 0.09 0.09 0.10 0.11 0.13 0.16 0.19 0.23 0.26 0.28
0.00 0.00 0.01 0.01 0.01 0.01 0.02 0.04 0.04 0.04 0.03 0.02 0.03 0.03 0.04 0.04 0.04 0.03 0.03 0.02 0.02 0.02 0.02 0.03 0.03 0.05 0.08 0.09 0.09 0.11 0.14 0.13 0.13 0.12 0.08 0.08 0.10 0.14 0.19 0.21 0.24 0.28 0.34